Vorticity
39 8 18 15 2 18 4 19 30 56 18 2 9 7 8 9 9 8 7 7 7 6
29 32 26 12 19 10 12 31 14 17 37 1 11 9 9 8 7 7 8 8 8 7
18 11 3 10 6 17 22 29 42 28 14 -1 14 7 7 7 8 8 8 8 6 6
15 4 1 2 9 13 24 30 30 14 1 2 5 8 7 8 9 9 8 8 7 7
14 5 3 7 7 -6 13 30 30 35 12 9 4 5 6 8 9 10 10 8 8 8
11 30 -0 10 6 2 7 10 20 35 45 -11 -13 12 13 10 10 9 8 8 10 11
18 28 33 21 15 3 16 6 12 18 39 11 8 4 6 6 11 16 12 11 11 11
-1 5 -3 -2 10 5 12 11 8 11 33 4 -11 -11 -9 -1 -7 -11 -15 -13 4 9
10 -2 13 7 2 6 7 21 16 2 6 14 14 15 17 17 23 10 -19 8 -12 -15
24 -4 18 -3 17 30 30 18 -2 22 22 22 22 14 26 33 20 22 33 35 41 21
19 10 7 7 9 17 8 15 15 12 6 4 19 4 -0 6 7 3 25 21 26 22
4 6 7 6 9 9 15 14 12 -1 14 10 9 5 13 18 16 12 13 12 10 12
6 5 8 8 7 5 4 6 10 10 9 6 8 -2 7 7 9 3 5 9 4 11
9 10 24 13 13 11 12 9 6 5 6 7 7 7 7 3 5 -1 4 0 -4 -4
Height
2980 2982 2982 2986 2991 2994 3001 3007 3009 3013 3023 3031 3041 3051 3058 3063 3069 3074 3079 3084 3088 3093
2978 2978 2981 2985 2987 2992 2997 2999 3003 3010 3016 3028 3038 3045 3051 3057 3063 3069 3074 3079 3083 3087
2980 2982 2983 2985 2987 2990 2991 2992 2997 3004 3013 3025 3034 3039 3045 3051 3057 3063 3068 3072 3077 3082
2981 2983 2983 2983 2988 2990 2991 2993 2997 3001 3007 3019 3026 3032 3039 3046 3052 3058 3064 3068 3073 3077
2981 2981 2982 2985 2988 2989 2992 2992 2996 3001 3005 3013 3021 3029 3036 3042 3049 3054 3059 3064 3068 3073
2984 2982 2982 2984 2988 2990 2991 2993 2995 2997 3004 3011 3022 3030 3036 3041 3045 3049 3054 3058 3064 3068
2985 2984 2985 2985 2989 2990 2990 2993 2995 2998 3003 3011 3019 3026 3032 3036 3040 3046 3048 3052 3057 3062
2983 2985 2988 2990 2989 2992 2993 2994 2995 2999 3004 3011 3016 3022 3027 3032 3036 3040 3044 3044 3051 3055
2986 2988 2987 2988 2990 2994 2994 2995 2997 3000 3005 3010 3017 3022 3025 3029 3032 3035 3039 3042 3045 3048
2985 2989 2990 2992 2993 2994 2994 2996 2999 3001 3006 3011 3015 3018 3021 3024 3027 3028 3032 3035 3038 3041
2990 2992 2993 2993 2997 2996 2997 2999 2999 3002 3005 3010 3012 3016 3018 3021 3024 3026 3029 3031 3033 3034
2995 2995 2996 2998 2999 2998 2998 2998 3000 3003 3007 3009 3012 3013 3016 3020 3022 3023 3026 3027 3029 3031
2995 2997 2998 2999 3000 3000 3000 3000 3002 3003 3006 3007 3009 3012 3014 3017 3019 3021 3023 3024 3026 3028
2997 2997 2997 2998 2998 2998 2999 2999 3000 3002 3003 3006 3006 3008 3012 3014 3016 3018 3019 3021 3024 3024